Location: Unspecified
(0.0000°N, 0.0000°E)
Time: 05:59:35
(UTC+00:00)

Freja - Pass Details

Date: 30 May 2024
Orbit: 548 x 1731 km, 63.0° (Epoch: 13 June)

Event Time Altitude Azimuth Distance (km) Brightness Sun altitude
Rises 20:38:30 0° 309° (NW) 2,719 9.3 -36.8°
Reaches altitude 10° 20:41:11 10° 290° (WNW) 1,810 8.2 -37.4°
Enters shadow 20:41:18 11° 289° (WNW) 1,776 8.1 -37.4°
